Norfolk International Airport Airport (ORF)

 

Airport Diagram
Current Weather/Forecast (VFR Conditions)
METAR KORF 081751Z VRB06G15KT 10SM CLR 27/12 A2960 RMK AO2 SLP022 60000 T02670117 10267 20189 56014
TAF KORF 081742Z 0818/0918 29008KT P6SM BKN100 FM082300 27012KT P6SM VCSH SCT060 BKN100 FM090200 35007KT P6SM SCT060 FM090900 19002KT 2SM BR BKN005 FM091200 21006KT P6SM SCT250 FM091400 24013G21KT P6SM FEW250

All Charts
General
Chart Name Download
AIRPORT DIAGRAM
TAKEOFF MINIMUMS
ALTERNATE MINIMUMS

Departures
Chart Name Download
KISRR THREE

Arrivals
Chart Name Download
DRONE TWO
DRONE TWO, CONT.1
TERKS TWO

Approaches
Chart Name Download
ILS OR LOC RWY 05
ILS OR LOC RWY 23
RNAV (RNP) Y RWY 05
RNAV (RNP) Y RWY 23
RNAV (GPS) RWY 14
RNAV (GPS) RWY 32
RNAV (GPS) Z RWY 05
RNAV (GPS) Z RWY 23
VOR/DME RWY 32
VOR RWY 14
RIVER VISUAL RWY 05


Inbound Traffic (Arrivals)

No inbound traffic.


Outbound Traffic (Departures)

No outbound traffic.